Time,TemperatureF,DewpointF,PressureIn,WindDirection,WindDirectionDegrees,WindSpeedMPH,WindSpeedGustMPH,Humidity,HourlyPrecipIn,Conditions,Clouds,dailyrainin,SolarRadiationWatts/m^2,SoftwareType,DateUTC
2013-09-22 00:21:00,49.0,43.0,29.95,NW,320,8.0,10.0,80,-99.99,,,-99.99,0.000000,,2013-09-22 07:21:00,
2013-09-22 00:32:00,49.0,43.0,29.95,NW,320,8.0,10.0,80,-99.99,,,-99.99,0.000000,,2013-09-22 07:32:00,
2013-09-22 00:40:00,50.0,41.0,29.95,NW,323,5.0,9.0,69,-99.99,,,-99.99,0.000000,,2013-09-22 07:40:00,
2013-09-22 01:22:00,50.0,41.0,29.95,NW,323,5.0,9.0,69,-99.99,,,-99.99,0.000000,,2013-09-22 08:22:00,
2013-09-22 01:32:00,50.0,41.0,29.95,NW,323,5.0,9.0,69,-99.99,,,-99.99,0.000000,,2013-09-22 08:32:00,
2013-09-22 01:40:00,50.0,40.0,29.95,NW,318,7.0,9.0,68,-99.99,,,-99.99,0.000000,,2013-09-22 08:40:00,
2013-09-22 02:21:00,50.0,40.0,29.95,NW,318,7.0,9.0,68,-99.99,,,-99.99,0.000000,,2013-09-22 09:21:00,
2013-09-22 02:33:00,50.0,40.0,29.95,NW,318,7.0,9.0,68,-99.99,,,-99.99,0.000000,,2013-09-22 09:33:00,
2013-09-22 03:23:00,50.0,40.0,29.95,NW,306,5.0,10.0,67,-99.99,,,-99.99,0.000000,,2013-09-22 10:23:00,
2013-09-22 03:33:00,50.0,40.0,29.95,NW,306,5.0,10.0,67,-99.99,,,-99.99,0.000000,,2013-09-22 10:33:00,
2013-09-22 03:40:00,51.0,41.0,29.94,NNW,335,8.0,15.0,67,-99.99,,,-99.99,0.000000,,2013-09-22 10:40:00,
2013-09-22 04:22:00,51.0,41.0,29.94,NNW,335,8.0,15.0,67,-99.99,,,-99.99,0.000000,,2013-09-22 11:22:00,
2013-09-22 04:33:00,51.0,41.0,29.94,NNW,335,8.0,15.0,67,-99.99,,,-99.99,0.000000,,2013-09-22 11:33:00,
2013-09-22 04:40:00,52.0,41.0,29.94,NNW,332,4.0,9.0,66,-99.99,,,-99.99,0.000000,,2013-09-22 11:40:00,
2013-09-22 05:22:00,52.0,41.0,29.94,NNW,332,4.0,9.0,66,-99.99,,,-99.99,0.000000,,2013-09-22 12:22:00,
2013-09-22 05:32:00,52.0,41.0,29.94,NNW,332,4.0,9.0,66,-99.99,,,-99.99,0.000000,,2013-09-22 12:32:00,
2013-09-22 05:40:00,51.0,41.0,29.94,West,276,4.0,8.0,68,-99.99,,,-99.99,0.000000,,2013-09-22 12:40:00,
2013-09-22 06:21:00,51.0,41.0,29.94,West,276,4.0,8.0,68,-99.99,,,-99.99,0.000000,,2013-09-22 13:21:00,
2013-09-22 06:32:00,51.0,41.0,29.94,West,276,4.0,8.0,68,-99.99,,,-99.99,0.000000,,2013-09-22 13:32:00,
2013-09-22 22:40:00,64.0,33.0,30.02,SSE,163,2.0,3.0,32,-99.99,,,-99.99,0.000000,,2013-09-23 05:40:00,
2013-09-22 23:22:00,64.0,33.0,30.02,SSE,163,2.0,3.0,32,-99.99,,,-99.99,0.000000,,2013-09-23 06:22:00,
2013-09-22 23:32:00,64.0,33.0,30.02,SSE,163,2.0,3.0,32,-99.99,,,-99.99,0.000000,,2013-09-23 06:32:00,
2013-09-22 23:40:00,63.0,33.0,30.02,East,82,4.0,6.0,32,-99.99,,,-99.99,0.000000,,2013-09-23 06:40:00,